Location: Home
(42.5358°N, 72.7383°W)
Time: 12:00:01
(UTC-05:00)

Explorer 7 - Pass Details

Date: 08 December 2021
Orbit: 483 x 674 km, 50.3° (Epoch: 26 January)

Event Time Altitude Azimuth Distance (km) Brightness Sun altitude
Rises 01:57:19 0° 182° (S) 2,939 - -55.8°
Reaches altitude 10° 02:01:07 10° 151° (SSE) 1,993 - -55.2°
Maximum altitude 02:02:48 12° 130° (SE) 1,853 - -54.9°
Drops below altitude 10° 02:04:27 10° 108° (ESE) 1,956 - -54.6°
Sets 02:08:05 0° 77° (ENE) 2,811 - -54.0°
